Hors Challenge

Le Trail Des Vues Dinantaises - Dinant (27.00 km)

dimanche 01 août 2021

Vous pouvez trouver Le classement original sur : http://ultratiming.be  
 
LE TRAIL DES VUES DINANTAISES - DINANT
DISTANCE : 27.00 km
dimanche 01 août 2021
 
Place Dos NOM Catégorie Pl/cat Temps Temps/km Vitesse
01:00:00              
1 23 MAHIA SEBASTIEN SEH 1 2:17:48 05:06 11.76
2 6426 GEORGES BENOIT V1H 1 2:17:49 05:06 11.75
3 6410 CASSE MATHIEU V1H 2 2:19:57 05:11 11.58
4 6451 PRAILE THOMAS SEH 2 2:23:24 05:19 11.30
5 6456 SCHAERS LAURENT SEH 3 2:23:31 05:19 11.29
6 6454 RIDDO SYLVAIN SEH 4 2:23:31 05:19 11.29
7 66 RAUCY MANU V1H 3 2:29:52 05:33 10.81
8 6416 DELEN GEERT V1H 4 2:30:00 05:33 10.80
9 6475 CHABOTEAUX JEROME SEH 5 2:30:06 05:34 10.79
10 6415 DEGREZ FRANÇOIS SEH 6 2:30:15 05:34 10.78
11 6482 LAOUREUX DENIS V1H 5 2:36:48 05:48 10.33
12 6421 DULON OLIVIER V2H 1 2:38:09 05:51 10.24
13 6453 REMAN SIMON SEH 7 2:38:27 05:52 10.22
14 6436 KOENIG JÉRÉMY SEH 8 2:38:45 05:53 10.20
15 6476 CHAMPAGNE RÉGIS V1H 6 2:39:17 05:54 10.17
16 6423 EFFINIER MATHIEU SEH 9 2:40:31 05:57 10.09
17 6445 MARLÉ ADRIEN V1H 7 2:40:56 05:58 10.07
18 69 TRAINA CHRISTOPHE V1H 8 2:41:05 05:58 10.06
19 6411 CASTELAIN JEAN-LUC V2H 2 2:43:23 06:03 9.92
20 6442 MARCHABD PIERRE V1H 9 2:43:42 06:04 9.90
21 6455 ROSSION ARNAUD SEH 10 2:43:48 06:04 9.89
22 6472 DAUTRIVE VINCENT SEH 11 2:45:38 06:08 9.78
23 6417 DELVAUX AXEL V1H 10 2:45:39 06:08 9.78
24 18 MARCHAND STÉPHANE V1H 11 2:45:50 06:09 9.77
25 6452 REMAN BRUNO SEH 12 2:50:21 06:19 9.51
26 6471 BEN SEDDIK SAID V2H 3 2:50:27 06:19 9.50
27 6403 BEIJER JESSE SEH 13 2:50:53 06:20 9.48
28 13 SANDERS BENJAMIN SEH 14 2:51:22 06:21 9.45
29 6458 SIRIN CAN SEH 15 2:52:52 06:24 9.37
30 6446 MARZOLI EMILIANO V1H 12 2:55:31 06:30 9.23
31 6441 MAQUET JORDAN SEH 16 2:56:43 06:33 9.17
32 6459 SMETS SANDER SEH 17 2:56:43 06:33 9.17
33 76 DE GROOTE CHARLES SEH 18 2:57:18 06:34 9.14
34 6434 JAUMOTTE STÉPHANE SEH 19 2:59:59 06:40 9.00
35 6428 GOSSIAUX JULIEN SEH 20 3:03:05 06:47 8.85
36 6443 MAREZ STEPHANE SEH 21 3:03:07 06:47 8.85
37 6468 YERNAUX CHRISTOPHE V1H 13 3:03:19 06:47 8.84
38 6408 BUYL ELS SEF 1 3:04:20 06:50 8.79
39 6450 OPRINS JIMMY V1H 14 3:05:01 06:51 8.76
40 21 DÉMAM PAUL V2H 4 3:08:12 06:58 8.61
41 6481 SLEEWAEGEN JACQUES V1H 15 3:09:58 07:02 8.53
42 6419 DEWIT RAYMOND V2H 5 3:09:59 07:02 8.53
43 6477 LEDUC SÉBASTIEN SEH 22 3:12:23 07:08 8.42
44 6438 LECLERCQ BENJAMIN V1H 16 3:12:26 07:08 8.42
45 6422 DUPOND LIONEL V1H 17 3:23:02 07:31 7.98
46 6463 THOMAS VALÉRIE V1F 1 3:29:58 07:47 7.72
47 6440 MALACHE CÉDRIC V1H 18 3:30:00 07:47 7.71
48 6405 BLONDEEL DIRK V1H 19 3:31:10 07:49 7.67
49 6406 BORLI ANDRE V2H 6 3:31:39 07:50 7.65
50 6457 SEVERINI MARC V3H 1 3:31:40 07:50 7.65
51 6474 KRAUCH BRUNO V1H 20 3:31:52 07:51 7.65
52 6401 ANBERGEN CAPUCINE V1F 2 3:32:44 07:53 7.62
53 6479 JASPARD MAXIME SEH 23 3:32:51 07:53 7.61
54 6448 MOISE DENIS SEH 24 3:32:52 07:53 7.61
55 6429 GRUIELLE YANNICK V2H 7 3:33:13 07:54 7.60
56 6462 SYDOR GUY V2H 8 3:33:24 07:54 7.59
57 6480 PALUMBO PINO V3H 2 3:34:15 07:56 7.56
58 6439 LOOTEN MARIE V1F 3 3:34:28 07:57 7.55
59 15 CLICHE CHRISTOPHER V2H 9 3:34:38 07:57 7.55
60 14 LECOMTE MICHELLE V3F 1 3:34:39 07:57 7.55
61 6469 ZAKARI NABIL SEH 25 3:35:43 07:59 7.51
62 6433 ISOBEL DUXFIELD SEF 2 3:36:15 08:01 7.49
63 6402 GRAINDONGE JOHANN SEH 26 3:36:39 08:01 7.48
64 71 MASSART GREGORY SEH 27 3:38:03 08:05 7.43
65 70 JACQUES KATRIEN V1F 4 3:38:07 08:05 7.43
66 6437 LAMPROYE DAVID SEH 28 3:40:16 08:09 7.35
67 6444 MARIËN PATRICK V1H 21 3:40:18 08:10 7.35
68 6427 GERMANOVA DESI V1F 5 3:43:10 08:16 7.26
69 6409 CAPIZZI VINCENZA V1F 6 3:43:10 08:16 7.26
70 42 DI GIACOMO MAURICE V2H 10 3:43:18 08:16 7.25
71 6424 FORÊT GRÉGORY V2H 11 3:48:09 08:27 7.10
72 6420 DRISSEN YVETTE SEF 3 3:55:46 08:44 6.87
73 6418 DEMOULIN STEEVE V1H 22 3:57:12 08:47 6.83
74 6447 MERTENS JULIE V1F 7 3:59:49 08:53 6.76
75 6465 VANDERBREETSTRAETEN THIERRY V2H 12 3:59:53 08:53 6.75
76 6432 IANIRI GÉRALDINE SEF 4 4:04:49 09:04 6.62
77 17 ABAD LAMAS PATRICIA V2F 1 4:11:53 09:20 6.43
78 6467 WOUTERS ETIENNE V2H 13 4:27:16 09:54 6.06
79 6464 VANDERBREETSTRAETEN SERGE V2H 14 4:27:19 09:54 6.06
80 16 DUBLET SERGE V4H 1 4:41:55 10:26 5.75
               
Nos dernières videos